Topeka, KS

10:58 AM CST on November 13, 2019 (GMT -0600)
Billard Municipal

Weather History for KTOP - September, 2019

Change the Weather History Date:

Friday, September 13, 2019

  Actual Average Record
Temperature  
Mean Temperature 70 °F 70 °F  
Max Temperature 81 °F 82 °F 104 °F (1893)
Min Temperature 58 °F 58 °F 34 °F (1890)
Degree Days  
Heating Degree Days 0 1  
Month to date heating degree days 0 8  
Since 1 July heating degree days 0 10  
Cooling Degree Days 5 6  
Month to date cooling degree days 159 99  
Year to date cooling degree days 1405 1327  
Growing Degree Days 19 (Base 50)    
Moisture  
Dew Point 57 °F    
Average Humidity 68    
Maximum Humidity 97    
Minimum Humidity 39    
Precipitation  
Precipitation 0.00 in 0.12 in 3.38 in (1901)
Month to date precipitation 1.22 1.60  
Year to date precipitation 42.11 28.17  
Snow  
Snow 0.00 in 0.00 in T in (1909)
Month to date snowfall 0.0 0.0  
Year to date snowfall 18.5 11.3  
Since 1 July snowfall T 0.0  
Snow Depth 0.00 in    
Sea Level Pressure  
Sea Level Pressure 30.16 in    
Wind  
Wind Speed 3 mph (SW)    
Max Wind Speed 12 mph    
Max Gust Speed 15 mph    
Visibility 8 miles    
Events      
T = Trace of Precipitation, MM = Missing Value Source: NWS Daily Summary

Daily Weather History Graph

Daily Weather History Graph

Search for Another Location

Airport or City:

Astronomy

Sep. 13, 2019 Rise Set
Actual Time 7:01 AM CDT 7:34 PM CDT
Civil Twilight 6:34 AM CDT 8:01 PM CDT
Nautical Twilight 6:03 AM CDT 8:32 PM CDT
Astronomical Twilight 5:30 AM CDT 9:05 PM CDT
Moon 7:47 PM CDT 6:20 AM CDT
Length of Visible Light 13h 26m
Length of Day
12h 32m
Full, 100% of the Moon is Illuminated
Sep 13
Full
Sep 13
Full
Sep 21
Last Quarter
Sep 28
New
Oct 5
First Quarter

Hourly Weather History & Observations

Time (CDT) Temp. Heat Index Dew Point Humidity Pressure Visibility Wind Dir Wind Speed Gust Speed Precip Events Conditions
12:30 AM 64.0 °F - 62.1 °F 93% 30.10 in 1.5 mi Calm Calm - N/A   Clear
12:32 AM 64.0 °F - 62.1 °F 93% 30.10 in 1.0 mi Calm Calm - N/A   Mist
12:40 AM 64.0 °F - 62.1 °F 93% 30.10 in 0.8 mi Calm Calm - N/A   Mist
12:53 AM 64.0 °F - 62.1 °F 93% 30.09 in 3.0 mi SW 3.5 mph - N/A   Clear
1:38 AM 63.0 °F - 60.1 °F 90% 30.12 in 4.0 mi West 5.8 mph - N/A   Clear
1:53 AM 64.0 °F - 60.1 °F 87% 30.11 in 10.0 mi West 5.8 mph - N/A   Clear
2:53 AM 62.1 °F - 59.0 °F 90% 30.12 in 10.0 mi Calm Calm - N/A   Clear
3:28 AM 61.0 °F - 59.0 °F 93% 30.14 in 2.5 mi Calm Calm - N/A   Clear
3:53 AM 61.0 °F - 59.0 °F 93% 30.14 in 1.2 mi Calm Calm - N/A   Clear
4:00 AM 60.1 °F - 59.0 °F 96% 30.15 in 3.0 mi Calm Calm - N/A   Clear
4:53 AM 61.0 °F - 57.9 °F 90% 30.15 in 10.0 mi WSW 3.5 mph - N/A   Clear
5:53 AM 60.1 °F - 57.0 °F 90% 30.16 in 10.0 mi Calm Calm - N/A   Clear
6:53 AM 59.0 °F - 55.0 °F 87% 30.18 in 10.0 mi WNW 3.5 mph - N/A   Clear
7:53 AM 60.1 °F - 54.0 °F 80% 30.21 in 10.0 mi West 3.5 mph - N/A   Clear
8:53 AM 62.1 °F - 54.0 °F 75% 30.22 in 10.0 mi SW 5.8 mph - N/A   Clear
9:53 AM 64.0 °F - 55.0 °F 73% 30.23 in 10.0 mi West 4.6 mph - N/A   Clear
10:53 AM 68.0 °F - 54.0 °F 61% 30.23 in 10.0 mi Calm Calm - N/A   Clear
11:53 AM 73.0 °F - 55.0 °F 53% 30.23 in 10.0 mi Calm Calm - N/A   Clear
12:53 PM 77.0 °F - 55.0 °F 47% 30.22 in 10.0 mi Variable 3.5 mph - N/A   Clear
1:53 PM 79.0 °F - 54.0 °F 42% 30.20 in 10.0 mi Calm Calm - N/A   Clear
2:53 PM 79.0 °F - 54.0 °F 42% 30.18 in 10.0 mi Calm Calm - N/A   Clear
3:53 PM 81.0 °F 80.5 °F 54.0 °F 39% 30.17 in 10.0 mi Variable 3.5 mph - N/A   Clear
4:53 PM 80.1 °F 80.1 °F 55.0 °F 42% 30.16 in 10.0 mi South 6.9 mph - N/A   Clear
5:53 PM 79.0 °F - 55.9 °F 45% 30.15 in 10.0 mi SSE 10.4 mph - N/A   Clear
6:53 PM 77.0 °F - 57.0 °F 50% 30.15 in 10.0 mi South 6.9 mph - N/A   Clear
7:53 PM 71.1 °F - 59.0 °F 66% 30.16 in 10.0 mi SSE 4.6 mph - N/A   Clear
8:53 PM 69.1 °F - 57.9 °F 68% 30.17 in 10.0 mi Calm Calm - N/A   Clear
9:53 PM 66.0 °F - 57.0 °F 73% 30.18 in 10.0 mi Calm Calm - N/A   Clear
10:53 PM 66.9 °F - 57.9 °F 73% 30.19 in 10.0 mi Calm Calm - N/A   Clear
11:53 PM 63.0 °F - 57.0 °F 81% 30.18 in 10.0 mi Calm Calm - N/A   Clear